STARLINK-34322, 64702

Orbit data source: Space-Track

STARLINK-34322, 64702 is a payload satellite owned by SpaceX/Seattle (US) in LEO that was launched on Sat, 28 Jun 2025 UTC via an FALCON 9 launch vehicle from the Air Force Western Test Range (AFWTR). Payload-class satellites include a variety of spacecraft equipped with specific instruments for various scientific and technological missions. These include communications satellites like Starlink; space stations such as the ISS; scientific satellites like the Hubble; Earth observation satellites from companies like Planet Labs, Umbra, and HawkEye 360; GPS; miniature CubeSats for education and research; and military/defense satellites.

Loading next visibility...
Identifier
64702, 2025-142G
Orbit
LEO
Last TLE update
12 hours ago
Origin
Manufacturer
SpaceX/Seattle
Mission
Operational spacecraft
Bus & Motor
STARLINK V2MO, Unknown motor
Mass
575 kg wet, ~530 kg dry
Launch date (UTC)
2025-06-28 (3 weeks ago)
Launch vehicle
FALCON 9
Launch site
Air Force Western Test Range (AFWTR)
Object type
Payload
Rocket body
Debris
Shape & HBR
Unknown
Radar Cross Section
Large (>1 m²)

Expand to show TLE details & history

TLE from 12 hours ago
0 STARLINK-34322
1 64702U 25142G   25199.25002315 -.01897881  00000-0 -31931-1 0  9999
2 64702  70.0006 195.5717 0004054 277.9041 100.1958 15.54975310  4279
Epoch: 2025-07-18T06:00Z
TLE epoch observation values (Epoch: 2025-07-18T06:00:02Z)
Latitude
17.01419°
Longitude
175.61775°
Altitude
404.564 km
Speed
7.669 km/s
True Right ascension
13h 27m 43s
True Declination
16° 54' 48"
Sunlit
Object was in daylight at epoch
Visualization orbit readout
Latitude
1.20151°
Longitude
-12.49077°
Altitude
410.704 km
Speed
7.665 km/s
Apparent Right ascension
22h 19m 23s
Apparent Declination
-27° 05' 56"
Sunlit
Object is in daylight
Visualization observer readout
Local Sidereal Time
06:16:51
Azimuth
264.9° W
Elevation
-38.84°
Doppler factor
1
Orbital elements
Apogee altitude
402.869 km
Perigee altitude
397.373 km
Semi-major axis
6,778.258 km
Eccentricity
0.00041
Inclination
70.0006°
RAAN
195.5717°
Arg. of periapsis
277.9041°
True anomaly
100.24152°
Mean anomaly
100.1958°
Eccentric anomaly
100.21866°
Mean motion
3.88925 °/min
Orbital period
92.56 mins
BSTAR
-0.031931
Loading maneuver chart data...
Loading SW <> Apogee altitude chart data...
Loading historical data...
Loading historical data...
Loading historical data...
Loading historical data...
Loading historical data...
Loading historical data...
Loading historical data...
|